Location: Bauerbach
(50.4985°N, 10.3912°E)
Time: 09:43:47
(UTC+00:00)

Cosmos 1833 Rocket - Pass Details

Date: 13 January 2026
Orbit: 832 x 838 km, 71.0° (Epoch: 16 February)

Event Time Altitude Azimuth Distance (km) Brightness Sun altitude
Exits shadow 05:40:59 21° 287° (WNW) 1,808 3.8 -14.3°
Maximum altitude 05:42:54 25° 257° (WSW) 1,625 3.7 -14.0°
Drops below altitude 10° 05:47:23 10° 204° (SSW) 2,441 5.0 -13.3°
Sets 05:50:11 0° 191° (SSW) 3,369 5.9 -12.9°
